This is the latest recevied weather packets stored in our database for station/object K8RRT. If no packets are shown the sender has not sent any weather packets the latest 10 day(s).
| Time | Temp. | Humidity | Pressure | Rain* | Wind** | Luminosity | Snow |
|---|---|---|---|---|---|---|---|
| 1777376793 | 14.44° C | 92% | 1009.6 hPa | 0 mm | - | 50 W/m² | - |
| 1777376490 | 14.44° C | 92% | 1009.3 hPa | 0 mm | - | 53 W/m² | - |
| 1777376186 | 14.44° C | 93% | 1009.4 hPa | 0 mm | - | 67 W/m² | - |
| 1777375881 | 13.89° C | 93% | 1009.5 hPa | 0 mm | - | 68 W/m² | - |
| 1777375575 | 13.89° C | 92% | 1009.3 hPa | 0 mm | - | 51 W/m² | - |
| 1777375271 | 13.89° C | 92% | 1009 hPa | 0 mm | - | 32 W/m² | - |
| 1777374968 | 13.89° C | 91% | 1008.9 hPa | 0 mm | - | 16 W/m² | - |
| 1777374664 | 14.44° C | 91% | 1009.3 hPa | 0 mm | - | 10 W/m² | - |
| 1777374359 | 14.44° C | 91% | 1009 hPa | 0 mm | - | 7 W/m² | - |
| 1777374056 | 14.44° C | 90% | 1008.9 hPa | 0 mm | - | 4 W/m² | - |
| 1777373752 | 14.44° C | 89% | 1008.8 hPa | 0 mm | - | 0 W/m² | - |
| 1777373450 | 14.44° C | 89% | 1008.6 hPa | 0 mm | - | 0 W/m² | - |
| 1777373145 | 14.44° C | 89% | 1008.4 hPa | 0 mm | - | 0 W/m² | - |
| 1777372840 | 14.44° C | 89% | 1008.3 hPa | 0 mm | - | 0 W/m² | - |
| 1777372535 | 14.44° C | 89% | 1007.8 hPa | 0 mm | - | 0 W/m² | - |
| 1777372228 | 14.44° C | 89% | 1006.2 hPa | 0 mm | - | 0 W/m² | - |
| 1777371928 | 13.89° C | 89% | 1007.3 hPa | 0 mm | - | 0 W/m² | - |
| 1777371625 | 13.89° C | 90% | 1007.7 hPa | 0 mm | - | 0 W/m² | - |
| 1777371321 | 13.89° C | 90% | 1007.7 hPa | 0 mm | - | 0 W/m² | - |
| 1777371018 | 13.89° C | 90% | 1007.3 hPa | 0 mm | - | 0 W/m² | - |
| 1777370713 | 13.89° C | 90% | 1007.6 hPa | 0 mm | - | 0 W/m² | - |
| 1777370410 | 13.89° C | 90% | 1007.7 hPa | 0 mm | - | 0 W/m² | - |
| 1777370105 | 13.89° C | 90% | 1007.9 hPa | 0 mm | - | 0 W/m² | - |
| 1777369803 | 13.89° C | 90% | 1008 hPa | 0 mm | - | 0 W/m² | - |
| 1777369503 | 13.89° C | 91% | 1007.4 hPa | 0 mm | - | 0 W/m² | - |
* Rain latest hour (hover to see other rain measurements)
** Current wind speed in m/s (hover to see current wind gust speed)